{"data":{"norad_id":59705,"intl_designator":"2024-087A","name":"ZHIHUI TIANWANG-1 01A","alt_names":[],"object_type":"PAYLOAD","status":"ACTIVE","operator":null,"country":"PRC","launch_date":"2024-05-09","launch_site_code":"XICLF","launch_vehicle":null,"mission":null,"orbit_class":"UNKNOWN","rcs_meters":null,"size_class":null,"mass_kg":null,"dimensions":null,"purposes":[],"wikipedia_slug":null,"has_3d_model":false,"image_url":null,"decayed_at":null,"tle_current":{"epoch":"2026-09-20T20:32:11.012928Z","epoch_age_seconds":239502,"freshness":"STALE","line1":"1 59705U 24087A   26263.85568302 -.00000025  00000+0  00000+0 0  9999","line2":"2 59705  53.1269 166.6409 0029085 203.2381 156.6723  2.00562101 17228","mean_motion":2.00562101,"eccentricity":0.0029085,"inclination_deg":53.1269,"raan_deg":166.6409,"arg_perigee_deg":203.2381,"mean_anomaly_deg":156.6723,"bstar":0,"rev_number":1722,"period_min":717.98210769641,"perigee_km":20105.092354217,"apogee_km":20259.594669354,"semimajor_km":26560.480511786,"source":"CELESTRAK","updated_at":"2026-09-23T09:00:19.527666Z"}}}